Location: ??????
(30.4887°N, 47.8606°E)
Time: 03:53:06
(UTC+00:00)

Daily predictions for brighter satellites

Satellite Brightness Start Highest point End
(mag) Time Altitude Azimuth Time Altitude Azimuth Time Altitude Azimuth
Cosmos 1833 Rocket 3.1 00:39:46 47° SSE 00:41:00 58° ESE 00:46:32 10° NNE
ATLAS 3B R/B 3.2 00:39:09 23° S 00:43:07 53° ESE 00:49:29 10° NE
ALOS 4.0 00:41:47 10° NE 00:45:54 30° E 00:49:59 10° SSE
CZ-2C R/B 4.1 00:46:44 10° N 00:48:34 23° N 00:48:34 23° N
Cosmos 1110 Rocket 3.9 00:56:00 83° NE 00:56:08 84° ENE 01:01:18 10° SSE
ISS -0.7 01:01:13 10° NNE 01:01:13 10° NNE 01:01:16 10° NNE
Cosmos 2082 Rocket 3.3 00:54:01 10° S 00:59:17 43° ESE 01:04:34 10° NE
ADEOS Rocket 2.7 00:56:40 10° SSE 01:02:14 80° ENE 01:07:44 10° N
CZ-2C R/B 2.8 01:04:16 25° ESE 01:04:16 25° ESE 01:05:47 10° ESE
CZ-3 Stage 3 4.2 01:02:04 26° S 01:03:44 35° SE 01:15:24 10° ENE
Meteor 1-16 Rocket 4.1 01:00:46 10° N 01:06:04 76° E 01:11:25 10° SSE
Meteor 2-5 Rocket 4.4 01:03:07 10° S 01:08:33 54° E 01:14:07 10° NNE
Cosmos 2279 Rocket 3.8 01:04:30 10° N 01:10:41 73° W 01:16:49 10° S
Cosmos 1484 Rocket 3.3 01:06:55 10° NNE 01:10:41 55° E 01:14:21 10° S
Cosmos 1626 3.0 01:07:51 10° SSE 01:11:24 49° E 01:14:59 10° NNE
Cosmos 1656 4.2 01:09:53 10° N 01:15:30 58° ENE 01:21:04 10° SSE
H-2A R/B 2.3 01:11:43 10° S 01:15:25 54° SSW 01:15:25 54° SSW
COSMOS 2406 3.4 01:17:22 47° WNW 01:17:22 47° WNW 01:22:48 10° N
CSL-04 DEB 4.3 01:14:37 10° S 01:18:53 70° WSW 01:19:06 68° WNW
Lacrosse 5 rocket 3.2 01:24:33 16° N 01:24:33 16° N 01:25:40 10° N
BREEZE-M DEB (TANK) 3.9 01:24:22 17° NNE 01:24:32 17° NNE 01:26:11 10° ENE
Cosmos 1697 Rocket 3.9 01:27:16 10° N 01:32:36 41° ENE 01:37:54 10° SE
deb Kosmos-1763 3.9 01:33:59 57° WSW 01:34:18 60° WNW 01:37:51 10° N
Meteor 1-31 Rocket 2.7 01:30:44 10° NNE 01:34:41 86° ESE 01:38:36 10° S
deb Chang Zheng 4 3.5 01:38:07 10° N 01:42:18 60° WNW 01:46:30 10° SSW
CZ-4B R/B 3.7 01:39:57 10° N 01:44:05 70° WNW 01:47:59 10° SSW
Cosmos 1892 Rocket 3.9 01:40:59 10° S 01:45:16 67° E 01:49:36 10° NNE
GOES 2 Rocket 4.2 01:42:43 22° WSW 01:46:34 65° SSE 01:54:10 10° E
FENGYUN 3A 3.7 01:41:56 10° N 01:47:13 54° WNW 01:52:30 10° SSW
ARGOS Delta rocket 4.2 01:41:49 10° N 01:47:17 87° E 01:52:46 10° S
Cosmos 292 Rocket 4.2 01:44:26 19° NW 01:47:26 40° W 01:51:56 10° S
CENTAUR R/B 4.1 01:48:26 14° NW 01:48:54 14° NW 01:52:15 10° N
CZ-4B R/B 1.3 01:46:46 10° S 01:50:12 73° W 01:53:40 10° NNW
Cosmos 2084 3.3 01:46:13 10° SSW 01:50:29 83° WNW 01:54:50 10° NNE
Intercosmos 24 3.7 01:47:52 10° N 01:51:29 81° E 01:55:09 10° S
Cosmos 2251 Rocket 3.5 01:46:53 10° SSW 01:52:12 67° WNW 01:57:32 10° N
Cosmos 1980 Rocket 4.0 01:49:20 10° N 01:54:18 32° ENE 01:59:14 10° SE
Cosmos 44 Rocket 3.4 01:51:27 10° NNW 01:56:39 87° WSW 02:01:49 10° SSE
SKYMED 2 4.3 01:55:06 10° SSE 01:59:19 55° ENE 02:03:34 10° N
Cosmos 1400 Rocket 3.9 01:57:24 10° N 02:01:11 45° E 02:04:53 10° SSE
Cosmos 614 Rocket 4.2 01:59:23 10° S 02:04:31 75° ESE 02:09:39 10° NNE
DELTA 2 R/B (1) 3.7 02:00:57 16° WNW 02:05:33 79° NNE 02:11:10 10° ESE
Cosmos 1092 Rocket 4.0 02:01:24 10° SSW 02:07:25 57° W 02:13:30 10° N
ERS-2 3.0 02:05:05 10° SSW 02:08:13 28° W 02:11:22 10° NW
Cosmos 1461 4.3 02:07:49 16° W 02:09:53 22° NW 02:13:28 10° N
SJ-12 4.1 02:08:27 10° N 02:12:24 48° WNW 02:16:19 10° SSW
SAR-Lupe-4 3.7 02:11:20 10° S 02:14:48 51° W 02:18:18 10° NNW
SL-14 R/B 4.4 02:14:33 10° SW 02:17:43 23° WNW 02:20:56 10° NNW
Cosmos 2278 4.4 02:14:57 10° N 02:20:31 59° ENE 02:26:04 10° SSE
ALOS 3.5 02:19:42 10° NNW 02:23:02 20° WNW 02:26:22 10° WSW
Aureole 3 4.0 02:20:29 10° N 02:24:58 88° E 02:30:44 10° S
Cosmos 1833 Rocket 4.2 02:21:58 10° W 02:25:16 16° WNW 02:28:34 10° NNW
PSLV R/B 3.9 02:22:58 10° S 02:27:08 76° WSW 02:31:21 10° NNW
Meteor 1-24 Rocket 4.3 02:23:59 10° SW 02:28:53 33° WNW 02:33:58 10° NNW
Gblst 52 Del rocket 4.2 02:23:59 10° SW 02:29:32 73° NW 02:35:40 10° NE
ATLAS 3B R/B 3.6 02:28:54 10° WSW 02:34:02 24° NW 02:39:13 10° N
Cosmos 1726 Rocket 3.9 02:30:21 10° NNW 02:34:34 43° W 02:38:47 10° SSW
Cosmos 1689 Rocket 2.6 02:31:49 10° S 02:34:35 37° W 02:37:20 10° NNW
